Find Milstar 6

NORAD ID: 27711 Int'l Des: 2003-012 Owner: AFSMC Country: US operational
HEOCIRCULARGSO

实时位置

正在加载3D地球...

关于 Milstar 6

正在加载描述...

即将过境

Passes for default location (London). Set your location on the main map for personalized predictions.

高度历史

Loading altitude history...

两行轨道根数

1 27711U 03012A 26105.77459541 -.00000220 00000-0 00000+0 0 9994
2 27711 12.2562 30.3386 0101435 5.8498 238.7032 1.00269749 32322
Epoch: Apr 15, 2026 • Age: 38 hours

当前状态

高度 35815.4 km
速度 3.07 km/s
星下点 12.06°N, 153.49°E
发射日期 Apr 8, 2003
运行时间 23 years
类型 other

技术详情

分类 Payload
质量 4500.00 kg
干质量 4200.00 kg
总质量 4500.00 kg
长度 15.50 m
直径 5.00 m
跨度 35.00 m
形状 Truss + Ant
制造商 LMMS
平台类型 Milstar
阶段状态 In Orbit
所有者/国家 AFSMC/US

Most Searched